This is the latest recevied weather packets stored in our database for station/object SR5NLK-1. If no packets are shown the sender has not sent any weather packets the latest 10 day(s).
| Time | Temp. | Humidity | Pressure | Rain* | Wind** | Luminosity | Snow |
|---|---|---|---|---|---|---|---|
| 1787464510 | 21.11° C | 60% | 1072.1 hPa | 0 mm | - | - | - |
| 1787464210 | 21.11° C | 61% | 1058.4 hPa | 0 mm | - | - | - |
| 1787463910 | 21.67° C | 61% | 1075.2 hPa | 0 mm | - | - | - |
| 1787463610 | 21.67° C | 61% | 1059.5 hPa | 0 mm | - | - | - |
| 1787463429 | 21.67° C | 61% | 1078.4 hPa | 0 mm | - | - | - |
| 1787463342 | 21.67° C | 61% | 1075.2 hPa | 0 mm | - | - | - |
| 1787463310 | 21.67° C | 61% | 1075.2 hPa | 0 mm | - | - | - |
| 1787462710 | 22.22° C | 63% | 1069 hPa | 0 mm | - | - | - |
| 1787462450 | 21.67° C | 64% | 1072.1 hPa | 0 mm | - | - | - |
| 1787462410 | 21.67° C | 64% | 1072.1 hPa | 0 mm | - | - | - |
| 1787462110 | 21.67° C | 66% | 1071.2 hPa | 0 mm | - | - | - |
| 1787461810 | 21.11° C | 67% | 1065.8 hPa | 0 mm | - | - | - |
| 1787461510 | 21.11° C | 70% | 1065.8 hPa | 0 mm | - | - | - |
| 1787461449 | 21.11° C | 70% | 1087.8 hPa | 0 mm | - | - | - |
| 1787460910 | 20° C | 75% | 1036.1 hPa | 0 mm | - | - | - |
| 1787460610 | 19.44° C | 79% | 1090.9 hPa | 0 mm | - | - | - |
| 1787460310 | 18.89° C | 84% | 1053.2 hPa | 0 mm | - | - | - |
| 1787460010 | 17.78° C | 88% | 1059.5 hPa | 0 mm | - | - | - |
| 1787459710 | 16.67° C | 91% | 1072.1 hPa | 0 mm | - | - | - |
| 1787459469 | 16.11° C | 91% | 1030.2 hPa | 0 mm | - | - | - |
| 1787459410 | 16.11° C | 92% | 1078.4 hPa | 0 mm | - | - | - |
| 1787459110 | 15° C | 92% | 1043.7 hPa | 0 mm | - | - | - |
| 1787458847 | 13.89° C | 91% | 1065.8 hPa | 0 mm | - | - | - |
| 1787458810 | 13.89° C | 91% | 1065.8 hPa | 0 mm | - | - | - |
| 1787458510 | 13.33° C | 90% | 1074.6 hPa | 0 mm | - | - | - |
* Rain latest hour (hover to see other rain measurements)
** Current wind speed in m/s (hover to see current wind gust speed)